�N����,����,�~����,�C��,���x,�C��,����,���ϕ���,�ő�u�ԕ���,�ő厞����,���˗�,�I�_���x,�n�����x,�ő啗���N��,DTYPE
"17/12/08","00:10",0.0,3.4,94.8,1008.3,308.7,1.7,2.5,322.8,0.00,2.7,7.0,"00:04:24",1
"17/12/08","00:20",0.0,3.5,95.5,1008.1,323.3,1.7,2.6,317.0,0.00,2.9,7.1,"00:12:56",1
"17/12/08","00:30",0.0,3.0,94.6,1008.3,271.9,0.8,1.4,251.7,0.00,2.3,7.0,"00:23:52",1
"17/12/08","00:40",0.0,3.0,95.5,1008.6,314.4,1.6,2.6,321.6,0.00,2.4,6.9,"00:35:44",1
"17/12/08","00:50",0.0,2.9,95.9,1008.1,311.3,2.1,3.2,325.2,0.00,2.4,6.9,"00:44:48",1
"17/12/08","01:00",0.0,3.2,96.7,1008.8,282.7,1.3,1.6,273.1,0.00,2.8,6.9,"00:52:48",1
"17/12/08","01:10",0.0,3.7,96.1,1008.3,291.0,1.6,2.0,316.6,0.00,3.2,6.8,"01:06:40",1
"17/12/08","01:20",0.0,3.9,95.4,1008.3,308.8,1.3,2.0,317.0,0.00,3.3,7.2,"01:13:28",1
"17/12/08","01:30",0.0,4.0,95.2,1008.1,285.7,1.1,1.6,298.7,0.00,3.3,6.9,"01:23:36",1
"17/12/08","01:40",0.0,4.1,94.6,1008.1,284.5,0.3,1.0,291.8,0.00,3.4,7.1,"01:30:40",1
"17/12/08","01:50",0.0,4.2,94.2,1007.8,311.7,1.3,2.6,318.7,0.00,3.4,7.1,"01:48:32",1
"17/12/08","02:00",0.0,4.2,94.3,1007.6,324.0,2.1,2.8,323.8,0.00,3.4,7.1,"01:54:56",1
"17/12/08","02:10",0.0,4.2,94.5,1007.6,290.3,1.3,1.9,310.4,0.00,3.4,7.2,"02:00:08",1
"17/12/08","02:20",0.0,4.4,94.7,1007.6,307.9,1.3,2.8,330.5,0.00,3.7,7.0,"02:19:44",1
"17/12/08","02:30",0.0,4.5,94.9,1007.8,287.1,1.6,2.6,327.0,0.00,3.8,7.2,"02:20:24",1
"17/12/08","02:40",0.0,4.7,94.6,1007.4,294.8,2.1,3.3,310.0,0.00,3.9,7.0,"02:36:56",1
"17/12/08","02:50",0.0,4.8,94.3,1007.6,296.8,2.1,4.0,325.6,0.00,4.0,7.0,"02:41:04",1
"17/12/08","03:00",0.0,4.7,94.7,1007.8,276.8,1.1,1.9,285.2,0.00,4.0,7.3,"02:50:32",1
"17/12/08","03:10",0.0,4.8,95.0,1007.6,318.6,1.1,2.5,319.3,0.00,4.1,7.2,"03:09:38",1
"17/12/08","03:20",0.0,4.9,95.0,1007.4,307.1,1.2,2.1,302.4,0.00,4.2,7.0,"03:15:14",1
"17/12/08","03:30",0.0,4.8,95.1,1007.4,288.2,1.6,1.7,291.3,0.00,4.1,7.2,"03:24:34",1
"17/12/08","03:40",0.0,4.8,95.3,1007.1,288.4,1.6,2.2,311.7,0.00,4.2,7.1,"03:36:16",1
"17/12/08","03:50",0.0,4.8,95.4,1006.9,312.4,2.0,2.6,307.7,0.00,4.2,7.1,"03:44:08",1
"17/12/08","04:00",0.0,4.7,95.7,1006.7,301.1,1.7,2.4,332.0,0.00,4.1,7.2,"03:50:08",1
"17/12/08","04:10",0.0,4.7,96.0,1006.7,295.9,1.8,2.7,312.3,0.00,4.2,7.3,"04:03:40",1
"17/12/08","04:20",0.0,4.6,96.5,1006.9,284.0,1.5,1.6,285.5,0.00,4.1,7.5,"04:10:08",1
"17/12/08","04:30",0.0,4.6,96.7,1006.2,298.5,2.0,2.8,322.0,0.00,4.2,7.2,"04:29:54",1
"17/12/08","04:40",0.0,4.6,96.7,1006.0,291.9,1.8,2.2,275.9,0.00,4.2,7.2,"04:35:20",1
"17/12/08","04:50",0.0,4.6,96.7,1006.2,298.3,1.7,2.6,314.5,0.00,4.2,7.5,"04:41:52",1
"17/12/08","05:00",0.0,4.6,96.9,1006.0,299.0,2.1,3.5,319.3,0.00,4.2,7.4,"04:58:40",1
"17/12/08","05:10",0.0,4.6,97.0,1006.0,301.8,1.8,2.4,322.3,0.00,4.2,7.4,"05:03:28",1
"17/12/08","05:20",0.0,4.6,97.1,1006.0,282.3,1.7,2.8,316.6,0.00,4.2,7.2,"05:19:12",1
"17/12/08","05:30",0.0,4.6,97.1,1006.0,304.6,1.2,2.4,320.9,0.00,4.2,7.1,"05:23:22",1
"17/12/08","05:40",0.0,4.7,97.2,1005.7,317.3,1.1,1.8,305.3,0.00,4.3,7.4,"05:30:16",1
"17/12/08","05:50",0.0,4.6,97.1,1005.7,299.9,1.6,2.9,309.1,0.00,4.2,7.3,"05:49:44",1
"17/12/08","06:00",0.0,4.5,97.5,1006.2,296.1,1.8,3.3,320.2,0.00,4.2,7.4,"05:50:40",1
"17/12/08","06:10",0.0,4.5,97.8,1006.2,284.0,1.2,1.6,306.2,0.00,4.2,7.4,"06:09:00",1
"17/12/08","06:20",0.0,4.5,97.9,1006.2,292.0,1.5,1.8,306.4,0.00,4.2,7.3,"06:17:04",1
"17/12/08","06:30",0.0,4.5,97.8,1006.4,304.3,1.8,2.9,314.8,0.00,4.2,7.4,"06:24:48",1
"17/12/08","06:40",0.0,4.6,98.0,1006.2,301.4,1.7,2.2,315.6,0.00,4.4,7.3,"06:35:20",1
"17/12/08","06:50",0.0,4.8,97.2,1006.7,305.0,1.6,2.1,312.5,0.00,4.4,7.3,"06:44:40",1
"17/12/08","07:00",0.0,4.7,97.9,1006.7,315.9,1.6,2.1,317.7,0.00,4.4,7.3,"06:52:56",1
"17/12/08","07:10",0.0,4.7,98.1,1006.9,298.1,1.7,2.0,306.1,0.00,4.5,7.4,"07:06:10",1
"17/12/08","07:20",0.0,4.9,97.2,1006.7,289.2,0.8,1.3,292.4,0.00,4.5,7.2,"07:19:36",1
"17/12/08","07:30",0.0,4.8,98.2,1006.7,295.7,1.6,1.8,306.4,0.00,4.6,7.4,"07:28:24",1
"17/12/08","07:40",0.0,5.1,97.5,1006.4,297.5,1.7,2.5,314.5,0.00,4.8,7.3,"07:39:32",1
"17/12/08","07:50",0.2,4.9,97.9,1006.4,285.7,1.6,2.5,306.5,0.00,4.6,7.4,"07:43:46",1
"17/12/08","08:00",0.0,4.8,97.9,1006.2,277.4,1.5,2.0,299.1,0.00,4.5,7.2,"07:59:36",1
"17/12/08","08:10",0.0,4.8,97.6,1006.4,281.6,1.7,2.1,269.8,0.00,4.5,7.3,"08:00:08",1
"17/12/08","08:20",0.0,4.9,97.8,1006.2,296.2,1.6,2.1,311.4,0.00,4.6,7.2,"08:19:46",1
"17/12/08","08:30",0.0,5.1,97.7,1006.4,315.7,1.7,2.4,317.8,0.01,4.8,7.4,"08:27:12",1
"17/12/08","08:40",0.0,5.1,97.6,1006.4,283.8,1.6,2.6,318.4,0.01,4.8,7.4,"08:30:24",1
"17/12/08","08:50",0.0,5.1,97.5,1006.4,284.1,1.6,1.9,297.1,0.01,4.8,7.3,"08:45:20",1
"17/12/08","09:00",0.0,5.1,97.3,1006.7,284.9,1.6,2.9,322.4,0.00,4.7,7.6,"08:53:06",1
"17/12/08","09:10",0.0,5.2,96.8,1006.7,272.0,1.3,2.1,258.1,0.01,4.8,7.4,"09:01:24",1
"17/12/08","09:20",0.0,5.3,96.2,1006.7,288.7,1.1,1.2,294.8,0.01,4.8,7.5,"09:13:46",1
"17/12/08","09:30",0.0,5.4,95.7,1006.7,285.7,1.5,1.8,298.9,0.01,4.8,7.5,"09:23:12",1
"17/12/08","09:40",0.0,5.5,95.1,1006.7,270.2,1.2,1.6,262.4,0.02,4.8,7.5,"09:34:26",1
"17/12/08","09:50",0.0,5.6,94.5,1006.2,298.7,1.3,1.6,307.8,0.03,4.8,7.7,"09:43:58",1
"17/12/08","10:00",0.0,5.8,93.7,1006.2,310.8,2.3,3.3,319.3,0.04,4.9,7.7,"09:57:26",1
"17/12/08","10:10",0.0,5.9,93.3,1006.4,308.3,2.7,4.2,317.8,0.04,4.9,7.7,"10:09:42",1
"17/12/08","10:20",0.0,6.0,92.8,1006.0,316.3,2.3,3.6,321.0,0.05,5.0,7.6,"10:10:08",1
"17/12/08","10:30",0.0,6.2,92.6,1006.4,300.0,1.6,2.6,306.6,0.07,5.1,7.9,"10:20:16",1
"17/12/08","10:40",0.0,6.4,92.0,1006.2,282.4,1.3,2.8,324.5,0.07,5.2,7.8,"10:39:36",1
"17/12/08","10:50",0.0,6.5,91.1,1005.5,316.9,1.7,2.6,313.3,0.07,5.2,7.8,"10:41:04",1
"17/12/08","11:00",0.0,6.6,90.7,1005.2,279.7,1.3,2.1,313.6,0.08,5.2,7.7,"10:50:16",1
"17/12/08","11:10",0.0,6.7,90.6,1005.7,275.4,1.5,2.1,302.9,0.06,5.3,7.9,"11:03:44",1
"17/12/08","11:20",0.0,6.8,90.6,1005.2,277.5,1.1,1.9,254.8,0.08,5.4,7.8,"11:11:20",1
"17/12/08","11:30",0.0,6.8,90.0,1005.2,279.0,1.0,1.6,284.5,0.04,5.3,8.3,"11:25:12",1
"17/12/08","11:40",0.0,6.9,89.8,1005.2,280.4,1.6,2.8,325.8,0.09,5.4,8.0,"11:39:20",1
"17/12/08","11:50",0.0,7.2,88.8,1005.0,319.1,1.7,3.6,324.6,0.07,5.5,8.3,"11:46:00",1
"17/12/08","12:00",0.0,7.3,89.1,1004.5,301.1,1.3,2.2,340.1,0.09,5.7,8.2,"11:53:04",1
"17/12/08","12:10",0.0,7.4,87.5,1004.8,253.1,0.8,1.8,242.0,0.17,5.5,8.3,"12:01:36",1
"17/12/08","12:20",0.0,7.7,86.2,1004.3,11.5,0.7,1.4,319.4,0.14,5.6,8.5,"12:16:16",1
"17/12/08","12:30",0.0,7.9,85.5,1004.5,276.1,0.5,1.2,341.2,0.11,5.7,8.5,"12:28:48",1
"17/12/08","12:40",0.0,8.1,83.3,1004.1,309.1,1.7,2.8,320.2,0.10,5.5,8.5,"12:36:56",1
"17/12/08","12:50",0.0,8.6,78.5,1004.3,299.9,2.1,3.6,330.0,0.10,5.1,8.4,"12:44:24",1
"17/12/08","13:00",0.0,8.8,76.9,1003.8,300.7,2.2,3.9,320.1,0.10,5.0,8.6,"12:51:04",1
"17/12/08","13:10",0.0,8.8,74.6,1003.1,302.2,2.3,5.8,340.3,0.14,4.6,8.3,"13:04:00",1
"17/12/08","13:20",0.0,9.0,72.9,1003.4,291.8,2.1,3.6,330.1,0.13,4.4,8.7,"13:11:04",1
"17/12/08","13:30",0.0,9.1,71.1,1003.4,287.7,2.7,5.0,340.4,0.12,4.2,8.4,"13:27:52",1
"17/12/08","13:40",0.0,8.9,72.7,1003.4,283.5,2.3,3.7,270.5,0.08,4.3,8.8,"13:34:32",1
"17/12/08","13:50",0.0,8.7,72.8,1003.4,278.9,2.3,4.8,318.7,0.06,4.1,8.6,"13:45:44",1
"17/12/08","14:00",0.0,8.6,74.1,1003.4,298.2,2.3,6.0,342.1,0.06,4.3,8.7,"13:54:56",1
"17/12/08","14:10",0.0,8.5,75.4,1003.1,291.3,1.8,2.7,263.4,0.02,4.4,8.9,"14:03:04",1
"17/12/08","14:20",0.0,7.8,77.5,1002.6,302.5,2.6,5.6,332.0,0.01,4.2,8.8,"14:11:28",1
"17/12/08","14:30",0.0,8.0,79.8,1002.4,283.1,2.2,3.3,232.9,0.11,4.8,8.7,"14:28:16",1
"17/12/08","14:40",0.0,7.8,82.0,1002.2,259.2,1.8,3.6,238.8,0.10,5.0,8.5,"14:36:10",1
"17/12/08","14:50",0.0,7.8,80.0,1002.2,272.7,1.8,2.8,291.7,0.09,4.6,8.8,"14:48:10",1
"17/12/08","15:00",0.0,8.1,79.9,1001.9,295.7,2.0,2.9,264.4,0.10,4.9,8.6,"14:54:58",1
"17/12/08","15:10",0.0,7.9,78.0,1002.6,271.8,2.3,5.4,260.4,0.08,4.3,8.8,"15:08:00",1
"17/12/08","15:20",0.0,7.7,78.6,1002.2,284.3,2.7,4.2,318.8,0.05,4.3,8.8,"15:15:06",1
"17/12/08","15:30",0.0,7.6,78.8,1002.2,295.2,3.1,7.0,328.9,0.03,4.2,8.5,"15:26:08",1
"17/12/08","15:40",0.0,7.2,78.5,1002.2,316.9,4.0,6.6,322.4,0.00,3.8,8.6,"15:35:54",1
"17/12/08","15:50",0.6,6.0,83.8,1002.4,311.6,4.6,14.3,328.2,0.00,3.5,8.7,"15:44:24",1
"17/12/08","16:00",0.8,5.0,87.8,1002.4,295.1,3.2,7.2,330.7,0.00,3.2,8.3,"15:53:16",1
"17/12/08","16:10",1.4,4.4,90.2,1002.2,305.9,3.6,7.1,338.4,0.00,3.0,8.4,"16:04:34",1
"17/12/08","16:20",0.8,3.9,91.8,1002.2,283.7,3.4,5.4,305.2,0.00,2.7,8.2,"16:17:22",1
"17/12/08","16:30",0.6,3.5,93.3,1001.9,287.8,3.1,5.0,303.0,0.00,2.6,8.1,"16:22:28",1
"17/12/08","16:40",0.6,3.3,94.1,1001.9,290.0,4.7,7.2,298.2,0.00,2.5,7.7,"16:31:32",1
"17/12/08","16:50",0.2,3.2,94.3,1001.9,295.4,4.9,7.0,272.7,0.00,2.4,7.9,"16:44:44",1
"17/12/08","17:00",0.0,3.2,94.3,1001.9,286.4,3.2,5.6,302.0,0.00,2.4,7.9,"16:57:30",1
"17/12/08","17:10",0.0,3.2,94.4,1002.4,267.4,2.5,4.5,245.8,0.00,2.4,7.7,"17:04:48",1
"17/12/08","17:20",0.0,3.2,94.0,1002.4,260.2,3.5,6.0,248.5,0.00,2.4,7.5,"17:16:34",1
"17/12/08","17:30",0.0,3.3,94.0,1003.1,256.8,3.4,5.9,234.2,0.00,2.5,7.5,"17:29:36",1
"17/12/08","17:40",0.0,3.5,93.5,1003.6,269.6,3.5,6.2,264.3,0.00,2.6,7.5,"17:32:08",1
"17/12/08","17:50",0.0,3.5,93.1,1003.8,277.7,4.2,6.2,282.6,0.00,2.5,7.4,"17:40:10",1
"17/12/08","18:00",0.0,3.3,93.2,1004.1,293.8,4.1,4.9,326.2,0.00,2.3,7.3,"17:53:32",1
"17/12/08","18:10",0.0,3.2,94.0,1003.8,313.9,5.2,6.6,323.4,0.00,2.4,7.2,"18:08:50",1
"17/12/08","18:20",0.2,3.3,94.7,1004.5,311.5,5.4,6.6,321.1,0.00,2.6,7.3,"18:15:44",1
"17/12/08","18:30",0.0,3.4,94.8,1004.8,313.2,3.5,4.7,322.2,0.00,2.7,7.4,"18:24:12",1
"17/12/08","18:40",0.0,3.4,94.4,1005.0,312.2,3.4,4.8,339.2,0.00,2.6,7.2,"18:33:48",1
"17/12/08","18:50",0.0,3.4,94.1,1005.2,314.1,4.0,4.9,332.0,0.00,2.6,6.9,"18:49:04",1
"17/12/08","19:00",0.0,3.3,93.9,1005.2,310.6,4.4,6.0,326.0,0.00,2.5,7.1,"18:56:24",1
"17/12/08","19:10",0.0,3.2,93.6,1005.2,296.4,3.2,4.4,314.8,0.00,2.3,6.9,"19:06:04",1
"17/12/08","19:20",0.0,3.0,93.6,1005.2,284.3,2.6,4.9,303.2,0.00,2.1,6.9,"19:12:38",1
"17/12/08","19:30",0.0,3.0,94.0,1005.5,290.9,2.8,4.2,317.0,0.00,2.2,7.0,"19:20:08",1
"17/12/08","19:40",0.0,3.4,93.5,1005.5,310.6,3.9,6.2,323.2,0.00,2.5,6.9,"19:35:22",1
"17/12/08","19:50",0.0,3.7,91.8,1005.5,311.3,5.1,6.2,312.7,0.00,2.5,7.0,"19:48:34",1
"17/12/08","20:00",0.0,3.6,90.1,1005.7,298.7,3.0,5.2,316.1,0.00,2.2,6.8,"19:51:58",1
"17/12/08","20:10",0.0,3.6,90.4,1006.2,296.9,3.4,5.9,302.8,0.00,2.2,6.9,"20:09:42",1
"17/12/08","20:20",0.0,3.8,90.0,1006.2,300.3,3.0,4.4,333.5,0.00,2.4,6.7,"20:13:44",1
"17/12/08","20:30",0.0,3.5,91.1,1006.7,291.3,2.5,3.2,310.4,0.00,2.2,6.8,"20:21:12",1
"17/12/08","20:40",0.0,3.4,92.8,1006.4,286.3,2.1,3.4,291.2,0.00,2.4,6.7,"20:30:16",1
"17/12/08","20:50",0.0,3.3,93.0,1006.4,295.4,2.0,3.4,319.9,0.00,2.3,6.8,"20:48:28",1
"17/12/08","21:00",0.0,3.0,93.2,1006.7,291.9,2.6,3.2,315.5,0.00,2.1,6.8,"20:51:12",1
"17/12/08","21:10",0.0,2.8,94.5,1006.2,300.5,2.1,2.7,318.4,0.00,2.0,6.9,"21:02:08",1
"17/12/08","21:20",0.0,2.5,95.1,1006.7,288.3,2.6,4.4,311.7,0.00,1.8,6.7,"21:13:04",1
"17/12/08","21:30",0.0,2.2,95.2,1006.7,310.9,2.5,3.3,313.5,0.00,1.6,6.8,"21:22:32",1
"17/12/08","21:40",0.0,1.7,96.0,1006.7,302.4,2.0,3.3,311.1,0.00,1.2,6.7,"21:34:32",1
"17/12/08","21:50",0.0,1.5,97.0,1006.7,311.9,2.2,3.4,324.3,0.00,1.1,6.5,"21:49:36",1
"17/12/08","22:00",0.0,1.4,97.4,1006.7,319.6,3.1,3.9,321.4,0.00,1.1,6.7,"21:58:16",1
"17/12/08","22:10",0.0,1.8,97.9,1006.4,321.5,4.0,6.2,326.1,0.00,1.5,6.6,"22:08:40",1
"17/12/08","22:20",0.0,2.0,97.1,1006.7,314.0,3.7,5.6,321.3,0.00,1.6,6.4,"22:12:40",1
"17/12/08","22:30",0.0,2.0,97.1,1006.9,322.3,3.6,5.9,329.6,0.00,1.6,6.6,"22:24:24",1
"17/12/08","22:40",0.0,1.8,96.3,1007.4,318.4,3.2,4.8,320.0,0.00,1.3,6.6,"22:32:48",1
"17/12/08","22:50",0.0,1.3,96.5,1007.4,323.4,2.8,4.1,318.3,0.00,0.8,6.5,"22:47:44",1
"17/12/08","23:00",0.0,1.1,96.9,1006.9,322.8,2.6,3.6,319.9,0.00,0.7,6.5,"22:53:20",1
"17/12/08","23:10",0.0,1.2,98.6,1007.4,319.8,3.2,6.4,324.8,0.00,1.0,6.3,"23:09:44",1
"17/12/08","23:20",0.0,2.0,96.9,1007.6,317.4,4.2,5.2,318.6,0.00,1.6,6.5,"23:10:48",1
"17/12/08","23:30",0.0,2.0,97.3,1008.1,317.8,3.7,5.7,325.3,0.00,1.7,6.3,"23:25:20",1
"17/12/08","23:40",0.0,2.0,97.3,1007.6,319.4,3.9,6.0,322.4,0.00,1.7,6.2,"23:37:04",1
"17/12/08","23:50",0.0,2.1,97.0,1008.1,316.7,3.9,5.7,334.5,0.00,1.7,6.2,"23:41:04",1
"17/12/08","24:00",0.0,2.0,97.0,1008.1,323.0,3.6,5.7,320.2,0.00,1.6,6.3,"23:52:00",1
